Year,Month,Day,Hour,Minute,Value (Times are PST for temperature in C)
2013,04,24,00,00,10.90
2013,04,24,00,01,10.90
2013,04,24,00,02,10.90
2013,04,24,00,03,10.90
2013,04,24,00,04,10.90
2013,04,24,00,05,10.90
2013,04,24,00,06,10.90
2013,04,24,00,07,10.90
2013,04,24,00,08,10.90
2013,04,24,00,09,10.90
2013,04,24,00,10,10.80
2013,04,24,00,11,10.80
2013,04,24,00,12,10.80
2013,04,24,00,16,10.70
2013,04,24,00,17,10.70
2013,04,24,00,18,10.70
2013,04,24,00,19,10.70
2013,04,24,00,20,10.70
2013,04,24,00,21,10.70
2013,04,24,00,22,10.70
2013,04,24,00,23,10.70
2013,04,24,00,24,10.70
2013,04,24,00,25,10.70
2013,04,24,00,26,10.70
2013,04,24,00,27,10.70
2013,04,24,00,28,10.60
2013,04,24,00,29,10.60
2013,04,24,00,30,10.60
2013,04,24,00,31,10.60
2013,04,24,00,32,10.60
2013,04,24,00,33,10.50
2013,04,24,00,34,10.50
2013,04,24,00,35,10.50
2013,04,24,00,36,10.40
2013,04,24,00,37,10.40
2013,04,24,00,38,10.30
2013,04,24,00,39,10.30
2013,04,24,00,40,10.30
2013,04,24,00,41,10.30
2013,04,24,00,42,10.20
2013,04,24,00,43,10.20
2013,04,24,00,44,10.20
2013,04,24,00,45,10.20
2013,04,24,00,46,10.20
2013,04,24,00,47,10.20
2013,04,24,00,48,10.10
2013,04,24,00,49,10.10
2013,04,24,00,50,10.10
2013,04,24,00,51,10.10
2013,04,24,00,52,10.10
2013,04,24,00,53,10.10
2013,04,24,00,54,10.00
2013,04,24,00,55,10.00
2013,04,24,00,56,10.00
2013,04,24,00,57,9.90
2013,04,24,00,58,9.90
2013,04,24,00,59,9.80
2013,04,24,01,00,9.80
2013,04,24,01,01,9.70
2013,04,24,01,02,9.70
2013,04,24,01,03,9.70
2013,04,24,01,04,9.60
2013,04,24,01,05,9.60
2013,04,24,01,06,9.60
2013,04,24,01,07,9.60
2013,04,24,01,08,9.60
2013,04,24,01,09,9.60
2013,04,24,01,10,9.60
2013,04,24,01,11,9.60
2013,04,24,01,12,9.60
2013,04,24,01,13,9.60
2013,04,24,01,14,9.60
2013,04,24,01,15,9.70
2013,04,24,01,16,9.70
2013,04,24,01,17,9.70
2013,04,24,01,18,9.70
2013,04,24,01,19,9.80
2013,04,24,01,20,9.80
2013,04,24,01,21,9.80
2013,04,24,01,22,9.80
2013,04,24,01,23,9.80
2013,04,24,01,24,9.90
2013,04,24,01,25,9.90
2013,04,24,01,26,10.00
2013,04,24,01,27,10.00
2013,04,24,01,28,10.00
2013,04,24,01,29,10.00
2013,04,24,01,30,10.10
2013,04,24,01,31,10.10
2013,04,24,01,32,10.10
2013,04,24,01,33,10.00
2013,04,24,01,34,10.00
2013,04,24,01,35,9.90
2013,04,24,01,36,9.90
2013,04,24,01,37,9.90
2013,04,24,01,38,9.80
2013,04,24,01,39,9.80
2013,04,24,01,40,9.80
2013,04,24,01,41,9.70
2013,04,24,01,42,9.70
2013,04,24,01,43,9.70
2013,04,24,01,44,9.70
2013,04,24,01,45,9.70
2013,04,24,01,46,9.60
2013,04,24,01,47,9.50
2013,04,24,01,48,9.50
2013,04,24,01,49,9.40
2013,04,24,01,50,9.40
2013,04,24,01,51,9.40
2013,04,24,01,52,9.40
2013,04,24,01,53,9.50
2013,04,24,01,54,9.70
2013,04,24,01,55,9.80
2013,04,24,01,56,9.90
2013,04,24,01,57,10.20
2013,04,24,01,58,10.40
2013,04,24,01,59,10.50
2013,04,24,02,00,10.60
2013,04,24,02,01,10.80
2013,04,24,02,02,11.00
2013,04,24,02,03,11.10
2013,04,24,02,04,11.30
2013,04,24,02,05,11.50
2013,04,24,02,06,11.60
2013,04,24,02,07,11.70
2013,04,24,02,08,11.80
2013,04,24,02,09,12.00
2013,04,24,02,10,12.10
2013,04,24,02,11,12.20
2013,04,24,02,12,12.20
2013,04,24,02,13,12.20
2013,04,24,02,14,12.20
2013,04,24,02,15,12.30
2013,04,24,02,16,12.30
2013,04,24,02,17,12.30
2013,04,24,02,18,12.30
2013,04,24,02,19,12.30
2013,04,24,02,20,12.30
2013,04,24,02,21,12.30
2013,04,24,02,22,12.30
2013,04,24,02,23,12.30
2013,04,24,02,24,12.30
2013,04,24,02,25,12.30
2013,04,24,02,26,12.40
2013,04,24,02,27,12.40
2013,04,24,02,28,12.40
2013,04,24,02,29,12.40
2013,04,24,02,30,12.40
2013,04,24,02,31,12.40
2013,04,24,02,32,12.40
2013,04,24,02,33,12.40
2013,04,24,02,34,12.40
2013,04,24,02,35,12.40
2013,04,24,02,36,12.40
2013,04,24,02,37,12.30
2013,04,24,02,38,12.30
2013,04,24,02,39,12.30
2013,04,24,02,40,12.30
2013,04,24,02,41,12.30
2013,04,24,02,42,12.30
2013,04,24,02,43,12.30
2013,04,24,02,44,12.30
2013,04,24,02,45,12.20
2013,04,24,02,46,12.20
2013,04,24,02,47,12.20
2013,04,24,02,48,12.20
2013,04,24,02,49,12.20
2013,04,24,02,50,12.20
2013,04,24,02,51,12.20
2013,04,24,02,52,12.20
2013,04,24,02,53,12.30
2013,04,24,02,54,12.30
2013,04,24,02,55,12.30
2013,04,24,02,56,12.30
2013,04,24,02,57,12.30
2013,04,24,02,58,12.30
2013,04,24,02,59,12.20
2013,04,24,03,00,12.10
2013,04,24,03,01,12.10
2013,04,24,03,02,12.00
2013,04,24,03,03,11.90
2013,04,24,03,04,11.90
2013,04,24,03,05,11.80
2013,04,24,03,06,11.80
2013,04,24,03,07,11.70
2013,04,24,03,08,11.70
2013,04,24,03,09,11.70
2013,04,24,03,10,11.60
2013,04,24,03,11,11.60
2013,04,24,03,12,11.50
2013,04,24,03,13,11.40
2013,04,24,03,14,11.30
2013,04,24,03,15,11.30
2013,04,24,03,16,11.30
2013,04,24,03,17,11.30
2013,04,24,03,18,11.20
2013,04,24,03,19,11.20
2013,04,24,03,20,11.20
2013,04,24,03,21,11.20
2013,04,24,03,22,11.20
2013,04,24,03,23,11.20
2013,04,24,03,24,11.20
2013,04,24,03,25,11.10
2013,04,24,03,26,11.10
2013,04,24,03,27,11.10
2013,04,24,03,28,11.20
2013,04,24,03,29,11.20
2013,04,24,03,30,11.10
2013,04,24,03,31,11.10
2013,04,24,03,32,11.10
2013,04,24,03,33,11.10
2013,04,24,03,34,11.10
2013,04,24,03,35,11.20
2013,04,24,03,36,11.10
2013,04,24,03,37,11.10
2013,04,24,03,38,11.00
2013,04,24,03,39,11.00
2013,04,24,03,40,10.90
2013,04,24,03,41,10.80
2013,04,24,03,42,10.80
2013,04,24,03,43,10.70
2013,04,24,03,44,10.60
2013,04,24,03,45,10.60
2013,04,24,03,46,10.50
2013,04,24,03,47,10.40
2013,04,24,03,48,10.40
2013,04,24,03,49,10.30
2013,04,24,03,50,10.30
2013,04,24,03,51,10.20
2013,04,24,03,52,10.10
2013,04,24,03,53,10.00
2013,04,24,03,54,10.00
2013,04,24,03,55,9.90
2013,04,24,03,56,9.80
2013,04,24,03,57,9.70
2013,04,24,03,58,9.70
2013,04,24,03,59,9.60
2013,04,24,04,00,9.60
2013,04,24,04,01,9.50
2013,04,24,04,02,9.50
2013,04,24,04,03,9.40
2013,04,24,04,04,9.40
2013,04,24,04,05,9.30
2013,04,24,04,06,9.30
2013,04,24,04,07,9.30
2013,04,24,04,08,9.30
2013,04,24,04,09,9.30
2013,04,24,04,10,9.20
2013,04,24,04,11,9.20
2013,04,24,04,12,9.20
2013,04,24,04,13,9.20
2013,04,24,04,14,9.20
2013,04,24,04,15,9.20
2013,04,24,04,16,9.20
2013,04,24,04,17,9.20
2013,04,24,04,18,9.20
2013,04,24,04,19,9.20
2013,04,24,04,20,9.20
2013,04,24,04,21,9.10
2013,04,24,04,22,9.10
2013,04,24,04,23,9.10
2013,04,24,04,24,9.00
2013,04,24,04,25,9.00
2013,04,24,04,26,9.00
2013,04,24,04,27,9.00
2013,04,24,04,28,9.00
2013,04,24,04,29,8.90
2013,04,24,04,30,8.90
2013,04,24,04,31,8.90
2013,04,24,04,32,8.90
2013,04,24,04,33,8.90
2013,04,24,04,34,8.90
2013,04,24,04,35,8.90
2013,04,24,04,36,8.90
2013,04,24,04,37,8.90
2013,04,24,04,38,8.90
2013,04,24,04,39,8.90
2013,04,24,04,40,8.90
2013,04,24,04,41,8.90
2013,04,24,04,42,8.90
2013,04,24,04,43,8.90
2013,04,24,04,44,8.80
2013,04,24,04,45,8.80
2013,04,24,04,46,8.80
2013,04,24,04,47,8.80
2013,04,24,04,48,8.80
2013,04,24,04,49,8.80
2013,04,24,04,50,8.80
2013,04,24,04,51,8.90
2013,04,24,04,52,8.90
2013,04,24,04,53,8.90
2013,04,24,04,54,8.90
2013,04,24,04,55,8.90
2013,04,24,04,56,8.90
2013,04,24,04,57,8.90
2013,04,24,04,58,8.80
2013,04,24,04,59,8.80
2013,04,24,05,00,8.80
2013,04,24,05,01,8.80
2013,04,24,05,02,8.80
2013,04,24,05,03,8.90
2013,04,24,05,04,8.90
2013,04,24,05,05,8.90
2013,04,24,05,06,9.00
2013,04,24,05,07,9.10
2013,04,24,05,08,9.10
2013,04,24,05,09,9.10
2013,04,24,05,10,9.20
2013,04,24,05,11,9.30
2013,04,24,05,12,9.30
2013,04,24,05,13,9.40
2013,04,24,05,14,9.40
2013,04,24,05,15,9.40
2013,04,24,05,16,9.40
2013,04,24,05,17,9.50
2013,04,24,05,18,9.50
2013,04,24,05,19,9.50
2013,04,24,05,20,9.40
2013,04,24,05,21,9.40
2013,04,24,05,22,9.40
2013,04,24,05,23,9.40
2013,04,24,05,24,9.40
2013,04,24,05,25,9.40
2013,04,24,05,26,9.30
2013,04,24,05,27,9.30
2013,04,24,05,28,9.30
2013,04,24,05,29,9.30
2013,04,24,05,30,9.20
2013,04,24,05,31,9.20
2013,04,24,05,32,9.20
2013,04,24,05,33,9.20
2013,04,24,05,34,9.10
2013,04,24,05,35,9.10
2013,04,24,05,36,9.10
2013,04,24,05,37,9.00
2013,04,24,05,38,9.00
2013,04,24,05,39,8.90
2013,04,24,05,40,8.90
2013,04,24,05,41,8.90
2013,04,24,05,42,8.80
2013,04,24,05,43,8.80
2013,04,24,05,44,8.80
2013,04,24,05,45,8.80
2013,04,24,05,46,8.80
2013,04,24,05,47,8.80
2013,04,24,05,48,8.80
2013,04,24,05,49,8.80
2013,04,24,05,50,8.80
2013,04,24,05,51,8.80
2013,04,24,05,52,8.80
2013,04,24,05,53,8.90
2013,04,24,05,54,9.00
2013,04,24,05,55,9.00
2013,04,24,05,56,9.00
2013,04,24,05,57,9.00
2013,04,24,05,58,9.00
2013,04,24,05,59,8.90
2013,04,24,06,00,9.00
2013,04,24,06,01,9.00
2013,04,24,06,02,9.00
2013,04,24,06,03,9.00
2013,04,24,06,04,9.00
2013,04,24,06,05,9.00
2013,04,24,06,06,9.00
2013,04,24,06,07,9.00
2013,04,24,06,08,9.00
2013,04,24,06,09,9.00
2013,04,24,06,10,8.90
2013,04,24,06,11,8.90
2013,04,24,06,12,8.90
2013,04,24,06,13,8.90
2013,04,24,06,14,8.90
2013,04,24,06,15,8.90
2013,04,24,06,16,8.90
2013,04,24,06,17,8.90
2013,04,24,06,18,8.90
2013,04,24,06,19,8.90
2013,04,24,06,20,8.90
2013,04,24,06,21,8.90
2013,04,24,06,22,8.90
2013,04,24,06,23,8.90
2013,04,24,06,24,8.90
2013,04,24,06,25,8.90
2013,04,24,06,26,8.90
2013,04,24,06,27,8.90
2013,04,24,06,28,8.90
2013,04,24,06,29,9.00
2013,04,24,06,30,9.00
2013,04,24,06,31,9.10
2013,04,24,06,32,9.10
2013,04,24,06,33,9.20
2013,04,24,06,34,9.20
2013,04,24,06,35,9.20
2013,04,24,06,36,9.30
2013,04,24,06,37,9.30
2013,04,24,06,38,9.30
2013,04,24,06,39,9.30
2013,04,24,06,40,9.30
2013,04,24,06,41,9.30
2013,04,24,06,42,9.30
2013,04,24,06,43,9.30
2013,04,24,06,44,9.30
2013,04,24,06,45,9.40
2013,04,24,06,46,9.30
2013,04,24,06,47,9.20
2013,04,24,06,48,9.10
2013,04,24,06,49,9.00
2013,04,24,06,50,8.90
2013,04,24,06,51,8.80
2013,04,24,06,52,8.80
2013,04,24,06,53,8.80
2013,04,24,06,54,8.80
2013,04,24,06,55,8.80
2013,04,24,06,56,8.80
2013,04,24,06,57,8.80
2013,04,24,06,58,8.80
2013,04,24,06,59,8.80
2013,04,24,07,00,8.90
2013,04,24,07,01,8.90
2013,04,24,07,02,8.90
2013,04,24,07,03,8.90
2013,04,24,07,04,8.90
2013,04,24,07,05,9.00
2013,04,24,07,06,9.00
2013,04,24,07,07,9.10
2013,04,24,07,08,9.10
2013,04,24,07,09,9.20
2013,04,24,07,10,9.20
2013,04,24,07,11,9.20
2013,04,24,07,12,9.30
2013,04,24,07,13,9.30
2013,04,24,07,14,9.30
2013,04,24,07,15,9.30
2013,04,24,07,16,9.40
2013,04,24,07,17,9.40
2013,04,24,07,18,9.50
2013,04,24,07,19,9.50
2013,04,24,07,20,9.60
2013,04,24,07,21,9.60
2013,04,24,07,22,9.60
2013,04,24,07,23,9.70
2013,04,24,07,24,9.70
2013,04,24,07,25,9.70
2013,04,24,07,26,9.70
2013,04,24,07,27,9.70
2013,04,24,07,28,9.80
2013,04,24,07,29,9.80
2013,04,24,07,30,9.80
2013,04,24,07,31,9.90
2013,04,24,07,32,9.90
2013,04,24,07,33,9.90
2013,04,24,07,34,9.90
2013,04,24,07,35,9.90
2013,04,24,07,36,9.90
2013,04,24,07,37,9.90
2013,04,24,07,38,9.90
2013,04,24,07,39,9.80
2013,04,24,07,40,9.80
2013,04,24,07,41,9.80
2013,04,24,07,42,9.80
2013,04,24,07,43,9.80
2013,04,24,07,44,9.80
2013,04,24,07,45,9.70
2013,04,24,07,46,9.70
2013,04,24,07,47,9.70
2013,04,24,07,48,9.70
2013,04,24,07,49,9.70
2013,04,24,07,50,9.80
2013,04,24,07,51,9.80
2013,04,24,07,52,9.90
2013,04,24,07,53,9.90
2013,04,24,07,54,9.90
2013,04,24,07,55,9.90
2013,04,24,07,56,10.00
2013,04,24,07,57,10.00
2013,04,24,07,58,10.00
2013,04,24,07,59,10.00
2013,04,24,08,00,10.10
2013,04,24,08,01,10.20
2013,04,24,08,02,10.30
2013,04,24,08,03,10.30
2013,04,24,08,04,10.40
2013,04,24,08,05,10.40
2013,04,24,08,06,10.50
2013,04,24,08,07,10.50
2013,04,24,08,08,10.60
2013,04,24,08,09,10.60
2013,04,24,08,10,10.60
2013,04,24,08,11,10.70
2013,04,24,08,12,10.70
2013,04,24,08,13,10.70
2013,04,24,08,14,10.80
2013,04,24,08,15,10.80
2013,04,24,08,16,10.80
2013,04,24,08,17,10.80
2013,04,24,08,18,10.80
2013,04,24,08,19,10.80
2013,04,24,08,20,10.80
2013,04,24,08,21,10.80
2013,04,24,08,22,10.80
2013,04,24,08,23,10.80
2013,04,24,08,24,10.80
2013,04,24,08,25,10.90
2013,04,24,08,26,11.00
2013,04,24,08,27,11.00
2013,04,24,08,28,11.10
2013,04,24,08,29,11.10
2013,04,24,08,30,11.20
2013,04,24,08,31,11.20
2013,04,24,08,32,11.10
2013,04,24,08,33,11.10
2013,04,24,08,34,11.10
2013,04,24,08,35,11.10
2013,04,24,08,36,11.10
2013,04,24,08,37,11.00
2013,04,24,08,38,11.00
2013,04,24,08,39,11.00
2013,04,24,08,40,10.90
2013,04,24,08,41,10.90
2013,04,24,08,42,10.80
2013,04,24,08,43,10.90
2013,04,24,08,44,10.90
2013,04,24,08,45,10.90
2013,04,24,08,46,11.00
2013,04,24,08,47,11.10
2013,04,24,08,48,11.10
2013,04,24,08,49,11.20
2013,04,24,08,50,11.20
2013,04,24,08,51,11.20
2013,04,24,08,52,11.20
2013,04,24,08,53,11.20
2013,04,24,08,54,11.20
2013,04,24,08,55,11.20
2013,04,24,08,56,11.20
2013,04,24,08,57,11.30
2013,04,24,08,58,11.30
2013,04,24,08,59,11.30
2013,04,24,09,00,11.40
2013,04,24,09,01,11.40
2013,04,24,09,02,11.50
2013,04,24,09,03,11.50
2013,04,24,09,04,11.60
2013,04,24,09,05,11.50
2013,04,24,09,06,11.50
2013,04,24,09,07,11.40
2013,04,24,09,08,11.40
2013,04,24,09,09,11.40
2013,04,24,09,10,11.50
2013,04,24,09,11,11.50
2013,04,24,09,12,11.40
2013,04,24,09,13,11.40
2013,04,24,09,14,11.40
2013,04,24,09,15,11.40
2013,04,24,09,16,11.40
2013,04,24,09,17,11.50
2013,04,24,09,18,11.50
2013,04,24,09,19,11.60
2013,04,24,09,20,11.50
2013,04,24,09,21,11.50
2013,04,24,09,22,11.60
2013,04,24,09,23,11.60
2013,04,24,09,24,11.70
2013,04,24,09,25,11.80
2013,04,24,09,26,11.80
2013,04,24,09,27,11.90
2013,04,24,09,28,11.90
2013,04,24,09,29,12.00
2013,04,24,09,30,12.10
2013,04,24,09,31,12.10
2013,04,24,09,32,12.10
2013,04,24,09,33,12.10
2013,04,24,09,34,12.20
2013,04,24,09,35,12.20
2013,04,24,09,36,12.30
2013,04,24,09,37,12.40
2013,04,24,09,38,12.60
2013,04,24,09,39,12.70
2013,04,24,09,40,12.80
2013,04,24,09,41,12.80
2013,04,24,09,42,12.80
2013,04,24,09,43,12.80
2013,04,24,09,44,12.70
2013,04,24,09,45,12.60
2013,04,24,09,46,12.50
2013,04,24,09,47,12.40
2013,04,24,09,48,12.40
2013,04,24,09,49,12.40
2013,04,24,09,50,12.50
2013,04,24,09,51,12.60
2013,04,24,09,52,12.50
2013,04,24,09,53,12.50
2013,04,24,09,54,12.40
2013,04,24,09,55,12.50
2013,04,24,09,56,12.50
2013,04,24,09,57,12.70
2013,04,24,09,58,12.80
2013,04,24,09,59,12.90
2013,04,24,10,00,13.00
2013,04,24,10,01,13.10
2013,04,24,10,02,13.20
2013,04,24,10,03,13.30
2013,04,24,10,04,13.40
2013,04,24,10,05,13.50
2013,04,24,10,06,13.60
2013,04,24,10,07,13.50
2013,04,24,10,08,13.50
2013,04,24,10,09,13.50
2013,04,24,10,10,13.40
2013,04,24,10,11,13.40
2013,04,24,10,12,13.30
2013,04,24,10,13,13.20
2013,04,24,10,14,13.20
2013,04,24,10,15,13.20
2013,04,24,10,16,13.20
2013,04,24,10,17,13.30
2013,04,24,10,18,13.40
2013,04,24,10,19,13.40
2013,04,24,10,20,13.30
2013,04,24,10,21,13.30
2013,04,24,10,22,13.40
2013,04,24,10,23,13.30
2013,04,24,10,24,13.30
2013,04,24,10,25,13.30
2013,04,24,10,26,13.40
2013,04,24,10,27,13.40
2013,04,24,10,28,13.50
2013,04,24,10,29,13.60
2013,04,24,10,30,13.70
2013,04,24,10,31,13.70
2013,04,24,10,32,13.70
2013,04,24,10,33,13.60
2013,04,24,10,34,13.50
2013,04,24,10,35,13.40
2013,04,24,10,36,13.50
2013,04,24,10,37,13.50
2013,04,24,10,38,13.60
2013,04,24,10,39,13.70
2013,04,24,10,40,13.80
2013,04,24,10,41,13.90
2013,04,24,10,42,13.90
2013,04,24,10,43,13.80
2013,04,24,10,44,13.80
2013,04,24,10,45,13.70
2013,04,24,10,46,13.70
2013,04,24,10,47,13.70
2013,04,24,10,48,13.70
2013,04,24,10,49,13.70
2013,04,24,10,50,13.60
2013,04,24,10,51,13.60
2013,04,24,10,52,13.40
2013,04,24,10,53,13.30
2013,04,24,10,54,13.30
2013,04,24,10,55,13.40
2013,04,24,10,56,13.50
2013,04,24,10,57,13.60
2013,04,24,10,58,13.70
2013,04,24,10,59,13.80
2013,04,24,11,00,13.80
2013,04,24,11,01,13.80
2013,04,24,11,02,13.70
2013,04,24,11,03,13.80
2013,04,24,11,04,13.90
2013,04,24,11,05,14.00
2013,04,24,11,06,13.90
2013,04,24,11,07,13.90
2013,04,24,11,08,13.80
2013,04,24,11,09,13.80
2013,04,24,11,10,13.70
2013,04,24,11,11,13.60
2013,04,24,11,12,13.50
2013,04,24,11,13,13.50
2013,04,24,11,14,13.50
2013,04,24,11,15,13.60
2013,04,24,11,16,13.70
2013,04,24,11,17,13.70
2013,04,24,11,18,13.90
2013,04,24,11,19,14.00
2013,04,24,11,20,14.10
2013,04,24,11,21,14.20
2013,04,24,11,22,14.20
2013,04,24,11,23,14.30
2013,04,24,11,24,14.40
2013,04,24,11,25,14.40
2013,04,24,11,26,14.50
2013,04,24,11,27,14.40
2013,04,24,11,28,14.30
2013,04,24,11,29,14.10
2013,04,24,11,30,14.00
2013,04,24,11,31,14.00
2013,04,24,11,32,14.00
2013,04,24,11,33,14.10
2013,04,24,11,34,14.20
2013,04,24,11,35,14.40
2013,04,24,11,36,14.70
2013,04,24,11,37,14.80
2013,04,24,11,38,14.80
2013,04,24,11,39,14.60
2013,04,24,11,40,14.40
2013,04,24,11,41,14.30
2013,04,24,11,42,14.10
2013,04,24,11,43,14.10
2013,04,24,11,44,14.20
2013,04,24,11,45,14.30
2013,04,24,11,46,14.30
2013,04,24,11,47,14.40
2013,04,24,11,48,14.50
2013,04,24,11,49,14.50
2013,04,24,11,50,14.60
2013,04,24,11,51,14.70
2013,04,24,11,52,14.80
2013,04,24,11,53,14.80
2013,04,24,11,54,14.80
2013,04,24,11,55,15.00
2013,04,24,11,56,15.00
2013,04,24,11,57,15.20
2013,04,24,11,58,15.40
2013,04,24,11,59,15.50
2013,04,24,12,00,15.70
2013,04,24,12,01,15.80
2013,04,24,12,02,15.80
2013,04,24,12,03,15.90
2013,04,24,12,04,16.00
2013,04,24,12,05,16.00
2013,04,24,12,06,16.10
2013,04,24,12,07,16.10
2013,04,24,12,08,16.10
2013,04,24,12,09,16.20
2013,04,24,12,10,16.30
2013,04,24,12,11,16.40
2013,04,24,12,12,16.50
2013,04,24,12,13,16.30
2013,04,24,12,14,16.20
2013,04,24,12,15,16.10
2013,04,24,12,16,16.10
2013,04,24,12,17,16.10
2013,04,24,12,18,16.10
2013,04,24,12,19,16.10
2013,04,24,12,20,16.20
2013,04,24,12,21,16.30
2013,04,24,12,22,16.30
2013,04,24,12,23,16.30
2013,04,24,12,24,16.30
2013,04,24,12,25,16.30
2013,04,24,12,26,16.40
2013,04,24,12,27,16.40
2013,04,24,12,28,16.50
2013,04,24,12,29,16.70
2013,04,24,12,30,16.70
2013,04,24,12,31,16.70
2013,04,24,12,32,16.70
2013,04,24,12,33,16.80
2013,04,24,12,34,16.80
2013,04,24,12,35,16.80
2013,04,24,12,36,16.80
2013,04,24,12,37,16.90
2013,04,24,12,38,16.90
2013,04,24,12,39,17.00
2013,04,24,12,40,17.00
2013,04,24,12,41,17.10
2013,04,24,12,42,17.10
2013,04,24,12,43,17.20
2013,04,24,12,44,17.20
2013,04,24,12,45,17.20
2013,04,24,12,46,17.20
2013,04,24,12,47,17.30
2013,04,24,12,48,17.30
2013,04,24,12,49,17.40
2013,04,24,12,50,17.40
2013,04,24,12,51,17.50
2013,04,24,12,52,17.50
2013,04,24,12,53,17.60
2013,04,24,12,54,17.60
2013,04,24,12,55,17.70
2013,04,24,12,56,17.70
2013,04,24,12,57,17.80
2013,04,24,12,58,17.80
2013,04,24,12,59,17.80
2013,04,24,13,00,17.70
2013,04,24,13,01,17.60
2013,04,24,13,02,17.60
2013,04,24,13,03,17.50
2013,04,24,13,04,17.40
2013,04,24,13,05,17.50
2013,04,24,13,06,17.60
2013,04,24,13,07,17.60
2013,04,24,13,08,17.70
2013,04,24,13,09,17.80
2013,04,24,13,10,17.80
2013,04,24,13,11,17.80
2013,04,24,13,12,17.80
2013,04,24,13,13,17.90
2013,04,24,13,14,18.00
2013,04,24,13,15,18.10
2013,04,24,13,16,18.10
2013,04,24,13,17,18.10
2013,04,24,13,18,18.10
2013,04,24,13,19,18.10
2013,04,24,13,20,18.10
2013,04,24,13,21,18.10
2013,04,24,13,22,18.10
2013,04,24,13,23,18.00
2013,04,24,13,24,17.90
2013,04,24,13,25,17.80
2013,04,24,13,26,17.80
2013,04,24,13,27,17.70
2013,04,24,13,28,17.60
2013,04,24,13,29,17.60
2013,04,24,13,30,17.50
2013,04,24,13,31,17.30
2013,04,24,13,32,17.30
2013,04,24,13,33,17.20
2013,04,24,13,34,17.20
2013,04,24,13,35,17.20
2013,04,24,13,36,17.20
2013,04,24,13,37,17.30
2013,04,24,13,38,17.30
2013,04,24,13,39,17.30
2013,04,24,13,40,17.10
2013,04,24,13,41,16.70
2013,04,24,13,42,16.50
2013,04,24,13,43,16.40
2013,04,24,13,44,16.50
2013,04,24,13,45,16.50
2013,04,24,13,46,16.60
2013,04,24,13,47,16.50
2013,04,24,13,48,16.30
2013,04,24,13,49,16.30
2013,04,24,13,50,16.40
2013,04,24,13,51,16.50
2013,04,24,13,52,16.60
2013,04,24,13,53,16.70
2013,04,24,13,54,16.60
2013,04,24,13,55,16.50
2013,04,24,13,56,16.50
2013,04,24,13,57,16.50
2013,04,24,13,58,16.40
2013,04,24,13,59,16.30
2013,04,24,14,00,16.30
2013,04,24,14,01,16.30
2013,04,24,14,02,16.20
2013,04,24,14,03,16.20
2013,04,24,14,04,16.20
2013,04,24,14,05,16.10
2013,04,24,14,06,16.10
2013,04,24,14,07,16.00
2013,04,24,14,08,15.90
2013,04,24,14,09,15.70
2013,04,24,14,10,15.60
2013,04,24,14,11,15.70
2013,04,24,14,12,15.70
2013,04,24,14,13,15.80
2013,04,24,14,14,15.90
2013,04,24,14,15,16.00
2013,04,24,14,16,16.10
2013,04,24,14,17,16.20
2013,04,24,14,18,16.30
2013,04,24,14,19,16.30
2013,04,24,14,20,16.30
2013,04,24,14,21,16.30
2013,04,24,14,22,16.40
2013,04,24,14,23,16.40
2013,04,24,14,24,16.40
2013,04,24,14,25,16.50
2013,04,24,14,26,16.60
2013,04,24,14,27,16.60
2013,04,24,14,28,16.60
2013,04,24,14,29,16.50
2013,04,24,14,30,16.40
2013,04,24,14,31,16.50
2013,04,24,14,32,16.70
2013,04,24,14,33,16.70
2013,04,24,14,34,16.70
2013,04,24,14,35,16.80
2013,04,24,14,36,16.70
2013,04,24,14,37,16.60
2013,04,24,14,38,16.60
2013,04,24,14,39,16.60
2013,04,24,14,40,16.70
2013,04,24,14,41,16.90
2013,04,24,14,42,17.00
2013,04,24,14,43,17.10
2013,04,24,14,44,17.10
2013,04,24,14,45,17.20
2013,04,24,14,46,17.20
2013,04,24,14,47,17.30
2013,04,24,14,48,17.40
2013,04,24,14,49,17.50
2013,04,24,14,50,17.60
2013,04,24,14,51,17.70
2013,04,24,14,52,17.80
2013,04,24,14,53,17.80
2013,04,24,14,54,17.90
2013,04,24,14,55,17.90
2013,04,24,14,56,17.90
2013,04,24,14,57,17.90
2013,04,24,14,58,17.80
2013,04,24,14,59,17.80
2013,04,24,15,00,17.80
2013,04,24,15,01,17.80
2013,04,24,15,02,17.80
2013,04,24,15,03,17.80
2013,04,24,15,04,17.70
2013,04,24,15,05,17.70
2013,04,24,15,06,17.70
2013,04,24,15,07,17.70
2013,04,24,15,08,17.80
2013,04,24,15,09,17.80
2013,04,24,15,10,17.90
2013,04,24,15,11,17.90
2013,04,24,15,12,17.80
2013,04,24,15,13,17.60
2013,04,24,15,14,17.50
2013,04,24,15,15,17.50
2013,04,24,15,16,17.60
2013,04,24,15,17,17.60
2013,04,24,15,18,17.70
2013,04,24,15,19,17.80
2013,04,24,15,20,17.70
2013,04,24,15,21,17.80
2013,04,24,15,22,17.80
2013,04,24,15,23,17.80
2013,04,24,15,24,17.80
2013,04,24,15,25,17.80
2013,04,24,15,26,17.80
2013,04,24,15,27,17.80
2013,04,24,15,28,17.60
2013,04,24,15,29,17.50
2013,04,24,15,30,17.30
2013,04,24,15,31,17.30
2013,04,24,15,32,17.10
2013,04,24,15,33,17.10
2013,04,24,15,34,17.10
2013,04,24,15,35,17.10
2013,04,24,15,36,17.20
2013,04,24,15,37,17.30
2013,04,24,15,38,17.50
2013,04,24,15,39,17.50
2013,04,24,15,40,17.60
2013,04,24,15,41,17.80
2013,04,24,15,42,17.80
2013,04,24,15,43,17.80
2013,04,24,15,44,17.70
2013,04,24,15,45,17.60
2013,04,24,15,46,17.70
2013,04,24,15,47,17.70
2013,04,24,15,48,17.70
2013,04,24,15,49,17.60
2013,04,24,15,50,17.60
2013,04,24,15,51,17.70
2013,04,24,15,52,17.70
2013,04,24,15,53,17.70
2013,04,24,15,54,17.60
2013,04,24,15,55,17.60
2013,04,24,15,56,17.60
2013,04,24,15,57,17.60
2013,04,24,15,58,17.60
2013,04,24,15,59,17.60
2013,04,24,16,00,17.60
2013,04,24,16,01,17.70
2013,04,24,16,02,17.70
2013,04,24,16,03,17.80
2013,04,24,16,04,17.80
2013,04,24,16,05,17.90
2013,04,24,16,06,17.90
2013,04,24,16,07,18.00
2013,04,24,16,08,18.00
2013,04,24,16,09,18.00
2013,04,24,16,10,18.00
2013,04,24,16,11,18.00
2013,04,24,16,12,18.00
2013,04,24,16,13,18.00
2013,04,24,16,14,18.00
2013,04,24,16,15,18.10
2013,04,24,16,16,18.20
2013,04,24,16,17,18.20
2013,04,24,16,18,18.30
2013,04,24,16,19,18.30
2013,04,24,16,20,18.30
2013,04,24,16,21,18.30
2013,04,24,16,22,18.30
2013,04,24,16,23,18.20
2013,04,24,16,24,18.20
2013,04,24,16,25,18.20
2013,04,24,16,26,18.20
2013,04,24,16,27,18.20
2013,04,24,16,28,18.30
2013,04,24,16,29,18.40
2013,04,24,16,30,18.40
2013,04,24,16,31,18.40
2013,04,24,16,32,18.50
2013,04,24,16,33,18.60
2013,04,24,16,34,18.60
2013,04,24,16,35,18.60
2013,04,24,16,36,18.50
2013,04,24,16,37,18.50
2013,04,24,16,38,18.40
2013,04,24,16,39,18.20
2013,04,24,16,40,18.20
2013,04,24,16,41,18.10
2013,04,24,16,42,18.10
2013,04,24,16,43,18.10
2013,04,24,16,44,18.10
2013,04,24,16,45,18.20
2013,04,24,16,46,18.20
2013,04,24,16,47,18.20
2013,04,24,16,48,18.30
2013,04,24,16,49,18.30
2013,04,24,16,50,18.40
2013,04,24,16,51,18.30
2013,04,24,16,52,18.30
2013,04,24,16,53,18.20
2013,04,24,16,54,18.10
2013,04,24,16,55,18.00
2013,04,24,16,56,18.00
2013,04,24,16,57,18.00
2013,04,24,16,58,18.00
2013,04,24,16,59,18.00
2013,04,24,17,00,18.10
2013,04,24,17,01,18.10
2013,04,24,17,02,18.20
2013,04,24,17,03,18.30
2013,04,24,17,04,18.30
2013,04,24,17,05,18.30
2013,04,24,17,06,18.00
2013,04,24,17,07,17.80
2013,04,24,17,08,17.50
2013,04,24,17,09,17.30
2013,04,24,17,10,17.20
2013,04,24,17,11,17.20
2013,04,24,17,12,17.00
2013,04,24,17,13,16.90
2013,04,24,17,14,16.80
2013,04,24,17,15,16.80
2013,04,24,17,16,16.70
2013,04,24,17,17,16.70
2013,04,24,17,18,16.70
2013,04,24,17,19,16.70
2013,04,24,17,20,16.70
2013,04,24,17,21,16.70
2013,04,24,17,22,16.70
2013,04,24,17,23,16.70
2013,04,24,17,24,16.70
2013,04,24,17,25,16.70
2013,04,24,17,26,16.60
2013,04,24,17,27,16.60
2013,04,24,17,28,16.60
2013,04,24,17,29,16.60
2013,04,24,17,30,16.70
2013,04,24,17,31,16.70
2013,04,24,17,32,16.60
2013,04,24,17,33,16.60
2013,04,24,17,34,16.70
2013,04,24,17,35,16.70